Location: McFarlands Corners
(41.4117°N, 81.3382°W)
Time: 08:28:18
(UTC+00:00)

Vanguard 1 Rocket - Pass Details

Date: 20 February 2026
Orbit: 653 x 4214 km, 34.3° (Epoch: 12 March)

Event Time Altitude Azimuth Distance (km) Brightness Sun altitude
Rises 23:36:59 0° 279° (W) 5,947 13.3 -6.6°
Reaches altitude 10° 23:40:30 10° 273° (W) 5,340 12.9 -7.3°
Maximum altitude 23:56:36 45° 209° (SSW) 4,513 11.2 -10.3°
Drops below altitude 10° 00:19:46 10° 146° (SSE) 7,395 11.7 -14.6°
Sets 00:25:57 0° 141° (SE) 8,313 11.9 -15.8°
